Showing default

FLOCK 4G 3, 62639

Orbit data source: Space-Track

FLOCK 4G 3, 62639 is a payload satellite owned by Planet (US) in SSO that was launched on Tue, 14 Jan 2025 UTC via an FALCON 9 launch vehicle from the Air Force Western Test Range (AFWTR). Payload-class satellites include a variety of spacecraft equipped with specific instruments for various scientific and technological missions. These include communications satellites like Starlink; space stations such as the ISS; scientific satellites like the Hubble; Earth observation satellites from companies like Planet Labs, Umbra, and HawkEye 360; GPS; miniature CubeSats for education and research; and military/defense satellites.

Loading next visibility...
Identifier
62639, 2025-009AG
Orbit
SSO
Country
Flag of USUS
Related business
Manufacturer
Planet
Mission
Operational Commercial Imaging
Bus & Motor
CUBESAT 3U, Unknown motor
Mass
5.7 kg wet, 5.7 kg dry
Launch date (UTC)
2025-01-14 (1 year ago)
Launch vehicle
FALCON 9
Launch site
Air Force Western Test Range (AFWTR)
Object type
Payload
Rocket body
Debris
Shape & HBR
Box + 2 Pan, 1.0 m
Radar Cross Section
0.072 m², Medium (>0.1 m² and < 1m²)

Expand to show TLE details & history
Last TLE update: 14 hours ago

TLE from 14 hours ago
0 FLOCK 4G 3
1 62639U 25009AG  26071.22601123  .00012369  00000-0  46573-3 0  9994
2 62639  97.4064 153.8139 0001349 277.1281  82.9805 15.27245862 64096
Epoch: 2026-03-12T05:25Z
TLE epoch observation values (Epoch: 2026-03-12T05:25:27.370Z)
Latitude
0.00003°
Longitude
-97.42909°
Altitude
487.037 km
Speed
7.622 km/s
True Right ascension
10h 15m 15s
True Declination
0° 00' 00"
Sunlit
Object was in full shadow at epoch
Visualization orbit readout
Latitude
Unknown
Longitude
Unknown
Altitude
Unknown
Speed
Unknown
Apparent Right ascension
Unknown
Apparent Declination
Unknown
Sunlit
N/A
Visualization observer readout
Local Sidereal Time
23:26:53
Azimuth
Unknown
Elevation
Unknown
Doppler factor
Unknown
Orbital elements
Apogee altitude
481.931 km
Perigee altitude
480.081 km
Semi-major axis
6,859.143 km
Eccentricity
0.00013
Inclination
97.4064°
RAAN
153.8139°
Arg. of periapsis
277.1281°
True anomaly
82.99584°
Mean anomaly
82.9805°
Eccentric anomaly
82.98817°
Mean motion
3.82066 °/min
Orbital period
94.22 mins
BSTAR
0.00046573
Loading maneuver chart data...
Computing Atmospheric mass density...
Loading historical data...
Loading historical data...
Loading historical data...
Loading historical data...
Loading historical data...
Loading historical data...
Loading historical data...

Documentation

Showing up to 5 results
|